Location: Newark
(48.3453°N, 0.5589°E)
Time: 15:06:47
(UTC+00:00)

Vanguard 1 - All Passes

Search period start: 14 December 2019 00:00
Search period end: 24 December 2019 00:00
Orbit: 651 x 3832 km, 34.3° (Epoch: 13 December)

Date Brightness Start Highest point End Pass type
(mag) Time Alt. Az. Time Alt. Az. Time Alt. Az.
14 Dec - 02:00:51 10° SSW 02:19:32 36° SSE 02:37:54 10° E visible
14 Dec - 04:21:42 10° WSW 04:43:41 52° S 05:01:14 10° ESE visible
14 Dec - 06:46:46 10° W 07:07:44 49° SSW 07:21:42 10° SE visible
14 Dec - 09:14:38 10° W 09:29:00 27° SW 09:38:44 10° S daylight
15 Dec - 00:05:32 10° SSE 00:18:00 19° SE 00:31:30 10° E visible
15 Dec - 02:20:40 10° SSW 02:40:15 41° SSE 02:59:22 10° E visible
15 Dec - 04:42:34 10° WSW 05:04:45 53° S 05:22:09 10° ESE visible
15 Dec - 07:08:09 10° W 07:28:31 45° SSW 07:42:07 10° SE visible
15 Dec - 09:36:55 10° W 09:49:07 22° SW 09:57:56 10° S daylight
16 Dec - 00:23:34 10° S 00:38:13 25° SE 00:54:25 10° E visible
16 Dec - 02:40:49 10° SW 03:01:06 46° SSE 03:20:40 10° E visible
16 Dec - 05:03:33 10° WSW 05:25:48 54° S 05:42:59 10° ESE visible
16 Dec - 07:29:38 10° W 07:49:10 41° SSW 08:02:21 10° SE daylight
16 Dec - 09:59:56 10° W 10:09:07 16° SW 10:16:18 10° SSW daylight
17 Dec - 00:42:28 10° SSW 00:58:33 31° SE 01:16:37 10° E visible
17 Dec - 03:01:14 10° SW 03:22:02 50° SSE 03:41:49 10° E visible
17 Dec - 05:24:40 10° WSW 05:46:50 53° S 06:03:42 10° ESE visible
17 Dec - 07:51:15 10° W 08:09:40 36° SW 08:22:21 10° SSE daylight
17 Dec - 10:25:16 10° WSW 10:28:59 11° WSW 10:32:20 10° SW daylight
17 Dec - 22:51:10 10° SE 22:58:11 13° ESE 23:05:52 10° ESE visible
18 Dec - 01:01:55 10° SSW 01:19:02 36° SE 01:38:24 10° E visible
18 Dec - 03:21:51 10° WSW 03:43:03 53° S 04:02:54 10° ESE visible
18 Dec - 05:45:53 10° W 06:07:47 51° SSW 06:24:19 10° SE visible
18 Dec - 08:13:05 10° W 08:30:01 30° SW 08:42:02 10° SSE daylight
18 Dec - 23:07:20 10° SSE 23:18:08 18° SE 23:30:45 10° E visible
19 Dec - 01:21:45 10° SSW 01:39:39 42° SSE 01:59:56 10° E visible
19 Dec - 03:42:39 10° WSW 04:04:06 55° S 04:23:53 10° ESE visible
19 Dec - 06:07:12 10° W 06:28:38 47° SSW 06:44:46 10° SE visible
19 Dec - 08:35:15 10° W 08:50:11 25° SW 09:01:17 10° S daylight
19 Dec - 23:25:24 10° S 23:38:13 24° SE 23:53:49 10° E visible
20 Dec - 01:41:54 10° SW 02:00:24 46° SSE 02:21:18 10° E visible
20 Dec - 04:03:34 10° WSW 04:25:12 55° S 04:44:47 10° ESE visible
20 Dec - 06:28:36 10° W 06:49:22 43° SSW 07:05:02 10° SE visible
20 Dec - 08:58:03 10° W 09:10:14 19° SW 09:19:50 10° SSW daylight
20 Dec - 23:44:20 10° S 23:58:25 30° SE 00:16:08 10° E visible
21 Dec - 02:02:17 10° SW 02:21:16 50° SSE 02:42:34 10° E visible
21 Dec - 04:24:36 10° WSW 04:46:15 54° S 05:05:35 10° ESE visible
21 Dec - 06:50:09 10° W 07:09:57 38° SSW 07:25:02 10° SSE visible
21 Dec - 09:22:11 10° W 09:30:09 14° WSW 09:36:58 10° SSW daylight
21 Dec - 21:54:49 10° SE 21:58:50 11° ESE 22:03:10 10° ESE night (unlit)
22 Dec - 00:03:48 10° SSW 00:18:47 35° SE 00:38:01 10° E visible
22 Dec - 02:22:51 10° WSW 02:42:15 53° SSE 03:03:44 10° E visible
22 Dec - 04:45:44 10° W 05:07:16 52° SSW 05:26:14 10° SE visible
22 Dec - 07:11:54 10° W 07:30:22 32° SW 07:44:43 10° SSE visible
22 Dec - 22:10:03 10° SSE 22:18:41 16° SE 22:29:11 10° E visible
23 Dec - 00:23:39 10° SSW 00:39:17 40° SSE 00:59:39 10° E visible
23 Dec - 02:43:36 10° WSW 03:03:17 55° S 03:24:48 10° ESE visible
23 Dec - 05:06:57 10° W 05:28:12 48° SSW 05:46:43 10° SE visible
23 Dec - 07:33:57 10° W 07:50:39 27° SW 08:03:58 10° S daylight
23 Dec - 22:28:01 10° S 22:38:40 22° SE 22:52:30 10° E visible
